Location: *
(44.3925°N, 5.4708°E)
Time: 02:11:23
(UTC+00:00)

Cosmos 2297 Rocket - Pass Details

Date: 18 September 2019
Orbit: 841 x 842 km, 71.0° (Epoch: 19 October)

Event Time Altitude Azimuth Distance (km) Brightness Sun altitude
Rises 20:55:28 0° 233° (SW) 3,388 5.5 -32.2°
Reaches altitude 10° 20:58:09 10° 243° (WSW) 2,457 4.8 -32.5°
Maximum altitude 21:03:11 33° 306° (NW) 1,399 3.8 -33.2°
Drops below altitude 10° 21:08:15 10° 10° (N) 2,470 5.0 -33.8°
Sets 21:10:58 0° 20° (NNE) 3,408 5.7 -34.2°
